SWA1404 KMKE-KDCA

Flight info

Callsign SWA1404
Flight time 1h 26m
Altitude 39000
Route UECKR6 SAMPL ADIME OTENS ANEWA JERRI NUSMM BUCKO FRDMM6
Aircraft B737/M-SDE2E3FGHIRWXY/LB1

Departure

Time 2026-04-25 02:50
Airport General Mitchell International Airport (KMKE)

Arrival

Time 2026-04-25 04:16
Airport Ronald Reagan Washington National Airport (KDCA)
Time Latitude Longitude Altitude Speed Heading
2026-04-25 02:48 42.93682 -87.89890 681 ft 21 kts 181°
2026-04-25 02:48 42.93396 -87.89902 686 ft 20 kts 182°
2026-04-25 02:49 42.93252 -87.89922 685 ft 22 kts 187°
2026-04-25 02:49 42.93109 -87.89942 686 ft 17 kts 172°
2026-04-25 02:49 42.93068 -87.89804 684 ft 17 kts 79°
2026-04-25 02:49 42.93164 -87.89745 684 ft 16 kts
2026-04-25 02:50 42.93378 -87.89709 681 ft 68 kts
2026-04-25 02:50 42.94119 -87.89592 745 ft 138 kts
2026-04-25 02:50 42.95165 -87.89430 1399 ft 164 kts
2026-04-25 02:50 42.96382 -87.89272 2237 ft 182 kts
2026-04-25 02:51 42.97665 -87.89052 3050 ft 198 kts 14°
2026-04-25 02:51 42.98849 -87.87927 3692 ft 220 kts 53°
2026-04-25 02:51 42.99316 -87.85872 4501 ft 242 kts 87°
2026-04-25 02:51 42.98892 -87.83556 5284 ft 262 kts 118°
2026-04-25 02:52 42.97711 -87.81617 6251 ft 271 kts 136°
2026-04-25 02:52 42.96323 -87.79804 7090 ft 283 kts 136°
2026-04-25 02:52 42.95378 -87.78565 7569 ft 293 kts 136°
2026-04-25 02:52 42.93263 -87.76122 8780 ft 303 kts 155°
2026-04-25 02:53 42.91251 -87.75275 9798 ft 304 kts 169°
2026-04-25 02:53 42.89141 -87.74676 10558 ft 317 kts 171°
2026-04-25 02:53 42.86909 -87.74062 10813 ft 346 kts 170°
2026-04-25 02:53 42.84462 -87.73357 11157 ft 369 kts 169°
2026-04-25 02:54 42.81916 -87.72580 11907 ft 378 kts 169°
2026-04-25 02:54 42.79333 -87.71756 12806 ft 382 kts 169°
2026-04-25 02:54 42.76754 -87.70910 13694 ft 387 kts 168°
2026-04-25 02:54 42.74131 -87.70006 14599 ft 388 kts 168°
2026-04-25 02:55 42.71500 -87.69129 15485 ft 390 kts 169°
2026-04-25 02:55 42.68851 -87.68265 16357 ft 392 kts 169°
2026-04-25 02:55 42.66176 -87.67387 17206 ft 395 kts 169°
2026-04-25 02:55 42.63524 -87.66511 18040 ft 398 kts 169°
2026-04-25 02:56 42.60819 -87.65618 18805 ft 400 kts 169°
2026-04-25 02:56 42.58110 -87.64724 19602 ft 399 kts 170°
2026-04-25 02:56 42.55405 -87.63833 20424 ft 399 kts 170°
2026-04-25 02:56 42.52727 -87.63065 21185 ft 397 kts 175°
2026-04-25 02:57 42.49968 -87.62792 21912 ft 397 kts 181°
2026-04-25 02:57 42.47194 -87.62638 22632 ft 398 kts 180°
2026-04-25 02:57 42.44439 -87.62460 23334 ft 400 kts 180°
2026-04-25 02:57 42.41650 -87.62489 23914 ft 399 kts 188°
2026-04-25 02:58 42.38895 -87.63044 24458 ft 400 kts 192°
2026-04-25 02:58 42.36140 -87.63678 24942 ft 403 kts 192°
2026-04-25 02:58 42.33316 -87.64015 25407 ft 410 kts 182°
2026-04-25 02:58 42.30463 -87.63647 25932 ft 416 kts 174°
2026-04-25 02:59 42.27675 -87.62713 26499 ft 421 kts 165°
2026-04-25 02:59 42.24946 -87.61247 27196 ft 419 kts 162°
2026-04-25 02:59 42.23164 -87.60236 27687 ft 417 kts 162°
2026-04-25 02:59 42.20507 -87.58718 28442 ft 413 kts 162°
2026-04-25 03:00 42.17860 -87.57221 29207 ft 409 kts 163°
2026-04-25 03:00 42.15226 -87.55752 29859 ft 408 kts 163°
2026-04-25 03:00 42.12624 -87.54316 30387 ft 408 kts 163°
2026-04-25 03:00 42.10000 -87.52874 30998 ft 404 kts 164°
2026-04-25 03:01 42.07384 -87.51438 31360 ft 408 kts 165°
2026-04-25 03:01 42.04713 -87.49981 31421 ft 419 kts 164°
2026-04-25 03:01 41.99339 -87.44179 31616 ft 471 kts 128°
2026-04-25 03:02 41.97972 -87.40076 31718 ft 493 kts 110°
2026-04-25 03:02 41.97529 -87.35491 31924 ft 507 kts 97°
2026-04-25 03:02 41.97452 -87.30733 32208 ft 509 kts 95°
2026-04-25 03:02 41.97452 -87.25964 32581 ft 508 kts 95°
2026-04-25 03:03 41.97462 -87.21211 32920 ft 508 kts 95°
2026-04-25 03:03 41.97451 -87.16451 33193 ft 509 kts 96°
2026-04-25 03:03 41.97412 -87.11679 33461 ft 510 kts 96°
2026-04-25 03:03 41.97352 -87.06976 33759 ft 510 kts 97°
2026-04-25 03:04 41.97276 -87.02219 34039 ft 509 kts 97°
2026-04-25 03:04 41.97192 -86.97445 34296 ft 509 kts 97°
2026-04-25 03:04 41.97105 -86.92675 34536 ft 508 kts 97°
2026-04-25 03:05 41.96933 -86.83264 35151 ft 505 kts 97°
2026-04-25 03:05 41.96843 -86.78509 35338 ft 507 kts 97°
2026-04-25 03:05 41.96752 -86.73758 35529 ft 508 kts 97°
2026-04-25 03:05 41.96660 -86.69027 35761 ft 507 kts 97°
2026-04-25 03:06 41.96567 -86.64279 36004 ft 507 kts 97°
2026-04-25 03:06 41.96472 -86.59530 36209 ft 507 kts 98°
2026-04-25 03:06 41.96376 -86.54846 36379 ft 508 kts 98°
2026-04-25 03:06 41.96276 -86.50095 36614 ft 507 kts 98°
2026-04-25 03:07 41.96176 -86.45365 36834 ft 507 kts 98°
2026-04-25 03:07 41.96072 -86.40610 37032 ft 507 kts 98°
2026-04-25 03:07 41.96003 -86.37469 37159 ft 508 kts 98°
2026-04-25 03:07 41.95897 -86.32737 37357 ft 508 kts 98°
2026-04-25 03:08 41.95789 -86.27985 37561 ft 507 kts 98°
2026-04-25 03:08 41.95569 -86.21718 37795 ft 504 kts 103°
2026-04-25 03:08 41.94378 -86.14128 37863 ft 497 kts 112°
2026-04-25 03:09 41.92528 -86.05174 37855 ft 495 kts 113°
2026-04-25 03:09 41.90695 -85.96271 37865 ft 493 kts 112°
2026-04-25 03:10 41.88919 -85.87424 37868 ft 492 kts 112°
2026-04-25 03:10 41.87151 -85.78538 37870 ft 492 kts 112°
2026-04-25 03:11 41.85376 -85.69646 37877 ft 492 kts 112°
2026-04-25 03:11 41.83602 -85.60813 37876 ft 493 kts 112°
2026-04-25 03:12 41.81807 -85.51921 37881 ft 493 kts 112°
2026-04-25 03:12 41.80013 -85.43072 37881 ft 494 kts 112°
2026-04-25 03:13 41.78200 -85.34166 37880 ft 495 kts 112°
2026-04-25 03:13 41.76378 -85.25263 37863 ft 497 kts 112°
2026-04-25 03:14 41.74536 -85.16293 37865 ft 498 kts 112°
2026-04-25 03:14 41.72696 -85.07366 37862 ft 499 kts 112°
2026-04-25 03:15 41.70837 -84.98390 37866 ft 500 kts 112°
2026-04-25 03:15 41.68967 -84.89398 37858 ft 501 kts 112°
2026-04-25 03:16 41.67106 -84.80453 37838 ft 503 kts 111°
2026-04-25 03:16 41.66175 -84.71063 37868 ft 513 kts 98°
2026-04-25 03:17 41.65855 -84.61549 37842 ft 514 kts 97°
2026-04-25 03:17 41.65522 -84.52009 37839 ft 513 kts 98°
2026-04-25 03:18 41.65121 -84.42493 37838 ft 512 kts 98°
2026-04-25 03:18 41.64689 -84.32990 37853 ft 511 kts 98°
2026-04-25 03:19 41.64250 -84.23504 37854 ft 510 kts 97°
2026-04-25 03:19 41.63808 -84.14070 37862 ft 510 kts 97°
2026-04-25 03:20 41.63358 -84.04592 37863 ft 511 kts 97°
2026-04-25 03:20 41.62900 -83.95092 37850 ft 511 kts 97°
2026-04-25 03:21 41.62440 -83.85681 37846 ft 511 kts 97°
2026-04-25 03:21 41.61964 -83.76181 37853 ft 511 kts 97°
2026-04-25 03:22 41.61483 -83.66695 37850 ft 511 kts 97°
2026-04-25 03:22 41.60596 -83.57382 37850 ft 504 kts 110°
2026-04-25 03:23 41.58574 -83.48395 37850 ft 503 kts 111°
2026-04-25 03:23 41.56477 -83.39468 37844 ft 504 kts 111°
2026-04-25 03:24 41.54431 -83.30534 37850 ft 505 kts 110°
2026-04-25 03:24 41.52411 -83.21583 37837 ft 506 kts 110°
2026-04-25 03:25 41.50372 -83.12557 37834 ft 507 kts 110°
2026-04-25 03:25 41.48333 -83.03585 37841 ft 508 kts 110°
2026-04-25 03:26 41.46266 -82.94544 37851 ft 508 kts 110°
2026-04-25 03:26 41.44206 -82.85565 37846 ft 509 kts 110°
2026-04-25 03:27 41.42127 -82.76533 37847 ft 509 kts 110°
2026-04-25 03:27 41.40047 -82.67537 37856 ft 510 kts 110°
2026-04-25 03:28 41.37042 -82.59114 37860 ft 502 kts 128°
2026-04-25 03:28 41.32545 -82.52140 37871 ft 494 kts 140°
2026-04-25 03:29 41.27671 -82.45670 37864 ft 494 kts 141°
2026-04-25 03:29 41.22839 -82.39232 37861 ft 495 kts 140°
2026-04-25 03:30 41.17991 -82.32703 37861 ft 495 kts 139°
2026-04-25 03:30 41.13152 -82.26165 37869 ft 496 kts 139°
2026-04-25 03:31 41.08341 -82.19677 37846 ft 496 kts 139°
2026-04-25 03:31 41.04302 -82.14248 37855 ft 496 kts 139°
2026-04-25 03:32 40.98626 -82.06632 37862 ft 496 kts 139°
2026-04-25 03:32 40.93790 -82.00161 37877 ft 496 kts 139°
2026-04-25 03:33 40.88921 -81.93661 37872 ft 497 kts 139°
2026-04-25 03:33 40.84042 -81.87162 37863 ft 497 kts 139°
2026-04-25 03:34 40.79184 -81.80706 37871 ft 497 kts 139°
2026-04-25 03:34 40.74307 -81.74237 37831 ft 497 kts 139°
2026-04-25 03:35 40.69454 -81.67815 37819 ft 497 kts 139°
2026-04-25 03:35 40.64574 -81.61363 37831 ft 496 kts 137°
2026-04-25 03:36 40.59687 -81.54926 37828 ft 496 kts 138°
2026-04-25 03:36 40.54807 -81.48516 37846 ft 495 kts 138°
2026-04-25 03:37 40.49943 -81.42137 37841 ft 495 kts 138°
2026-04-25 03:37 40.45052 -81.35735 37847 ft 495 kts 138°
2026-04-25 03:38 40.40184 -81.29385 37838 ft 495 kts 138°
2026-04-25 03:38 40.35305 -81.23015 37836 ft 495 kts 137°
2026-04-25 03:39 40.30411 -81.16649 37833 ft 495 kts 137°
2026-04-25 03:39 40.25530 -81.10319 37824 ft 495 kts 137°
2026-04-25 03:40 40.20629 -81.03973 37827 ft 495 kts 137°
2026-04-25 03:40 40.15727 -80.97637 37830 ft 495 kts 137°
2026-04-25 03:41 40.10817 -80.91305 37824 ft 494 kts 137°
2026-04-25 03:41 40.05945 -80.85034 37821 ft 494 kts 137°
2026-04-25 03:42 40.01067 -80.78697 37819 ft 494 kts 136°
2026-04-25 03:42 39.96333 -80.72251 37819 ft 494 kts 135°
2026-04-25 03:43 39.91589 -80.65740 37827 ft 494 kts 135°
2026-04-25 03:43 39.86860 -80.59306 37798 ft 494 kts 135°
2026-04-25 03:44 39.82104 -80.52876 37829 ft 492 kts 135°
2026-04-25 03:44 39.77336 -80.46447 37820 ft 492 kts 135°
2026-04-25 03:45 39.72596 -80.40068 37823 ft 492 kts 135°
2026-04-25 03:45 39.67832 -80.33669 37833 ft 492 kts 136°
2026-04-25 03:46 39.63099 -80.27325 37842 ft 492 kts 135°
2026-04-25 03:46 39.58329 -80.20944 37849 ft 490 kts 136°
2026-04-25 03:47 39.53569 -80.14590 37859 ft 490 kts 135°
2026-04-25 03:47 39.51214 -80.11451 37382 ft 493 kts 135°
2026-04-25 03:47 39.48822 -80.08265 36772 ft 491 kts 135°
2026-04-25 03:48 39.46443 -80.05101 36093 ft 489 kts 135°
2026-04-25 03:48 39.44073 -80.01953 35363 ft 489 kts 135°
2026-04-25 03:48 39.41691 -79.98791 34583 ft 490 kts 135°
2026-04-25 03:48 39.39338 -79.95670 33780 ft 492 kts 135°
2026-04-25 03:49 39.36939 -79.92491 32822 ft 494 kts 135°
2026-04-25 03:49 39.34532 -79.89306 31904 ft 495 kts 135°
2026-04-25 03:49 39.32205 -79.86022 31239 ft 493 kts 127°
2026-04-25 03:49 39.30414 -79.82230 31104 ft 494 kts 115°
2026-04-25 03:50 39.29142 -79.78139 30495 ft 500 kts 103°
2026-04-25 03:50 39.28507 -79.73776 30064 ft 489 kts 93°
2026-04-25 03:50 39.28212 -79.69439 29604 ft 481 kts 91°
2026-04-25 03:50 39.28049 -79.66604 29285 ft 478 kts 91°
2026-04-25 03:51 39.27780 -79.62327 28870 ft 476 kts 92°
2026-04-25 03:51 39.27349 -79.56642 28317 ft 473 kts 94°
2026-04-25 03:51 39.27007 -79.52477 27921 ft 470 kts 94°
2026-04-25 03:51 39.26660 -79.48273 27511 ft 468 kts 94°
2026-04-25 03:52 39.26317 -79.44102 27107 ft 466 kts 94°
2026-04-25 03:52 39.25975 -79.39931 26717 ft 465 kts 94°
2026-04-25 03:52 39.25636 -79.35801 26309 ft 458 kts 94°
2026-04-25 03:52 39.25414 -79.33100 26047 ft 452 kts 94°
2026-04-25 03:53 39.24103 -79.17380 24546 ft 424 kts 94°
2026-04-25 03:54 39.23782 -79.13619 24193 ft 420 kts 94°
2026-04-25 03:54 39.23463 -79.09887 23806 ft 418 kts 94°
2026-04-25 03:54 39.23145 -79.06170 23455 ft 415 kts 94°
2026-04-25 03:54 39.22832 -79.02515 23043 ft 413 kts 94°
2026-04-25 03:55 39.22516 -78.98846 22670 ft 409 kts 94°
2026-04-25 03:55 39.22198 -78.95209 22291 ft 406 kts 94°
2026-04-25 03:55 39.21976 -78.92823 22062 ft 404 kts 95°
2026-04-25 03:56 39.21078 -78.83642 21174 ft 397 kts 95°
2026-04-25 03:56 39.20738 -78.80159 20841 ft 395 kts 95°
2026-04-25 03:56 39.20392 -78.76609 20499 ft 393 kts 95°
2026-04-25 03:56 39.20166 -78.74283 20276 ft 392 kts 95°
2026-04-25 03:57 39.19828 -78.70834 19941 ft 391 kts 95°
2026-04-25 03:57 39.19372 -78.66192 19496 ft 389 kts 95°
2026-04-25 03:57 39.19261 -78.65066 19388 ft 389 kts 95°
2026-04-25 03:58 39.18099 -78.53335 18264 ft 384 kts 96°
2026-04-25 03:58 39.17767 -78.50007 17893 ft 383 kts 96°
2026-04-25 03:59 39.16423 -78.36685 16671 ft 364 kts 98°
2026-04-25 03:59 39.15831 -78.33502 16362 ft 367 kts 106°
2026-04-25 04:00 39.15031 -78.30371 16055 ft 370 kts 108°
2026-04-25 04:00 39.14194 -78.27265 15740 ft 371 kts 108°
2026-04-25 04:00 39.13357 -78.24114 15426 ft 370 kts 108°
2026-04-25 04:00 39.12545 -78.20964 15108 ft 369 kts 107°
2026-04-25 04:01 39.11765 -78.17862 14774 ft 354 kts 107°
2026-04-25 04:01 39.11030 -78.14915 14469 ft 337 kts 107°
2026-04-25 04:01 39.10336 -78.12135 14184 ft 322 kts 107°
2026-04-25 04:01 39.09658 -78.09439 13918 ft 309 kts 108°
2026-04-25 04:02 39.08997 -78.06843 13659 ft 301 kts 108°
2026-04-25 04:02 39.08346 -78.04297 13382 ft 298 kts 108°
2026-04-25 04:02 39.07698 -78.01766 13114 ft 296 kts 108°
2026-04-25 04:02 39.07062 -77.99280 12850 ft 295 kts 108°
2026-04-25 04:03 39.06422 -77.96779 12596 ft 293 kts 108°
2026-04-25 04:03 39.05782 -77.94282 12349 ft 292 kts 107°
2026-04-25 04:03 39.05146 -77.91798 12088 ft 290 kts 108°
2026-04-25 04:03 39.04521 -77.89365 11836 ft 289 kts 108°
2026-04-25 04:04 39.03889 -77.86908 11577 ft 288 kts 108°
2026-04-25 04:04 39.03259 -77.84459 11345 ft 287 kts 108°
2026-04-25 04:04 39.02632 -77.82022 11090 ft 286 kts 108°
2026-04-25 04:04 39.02006 -77.79593 10872 ft 285 kts 108°
2026-04-25 04:05 39.01381 -77.77172 10635 ft 285 kts 108°
2026-04-25 04:05 39.00764 -77.74780 10394 ft 284 kts 108°
2026-04-25 04:05 39.00137 -77.72353 10151 ft 284 kts 109°
2026-04-25 04:05 38.99511 -77.69938 9910 ft 284 kts 109°
2026-04-25 04:06 38.98887 -77.67527 9652 ft 284 kts 109°
2026-04-25 04:06 38.98255 -77.65097 9396 ft 288 kts 110°
2026-04-25 04:06 38.97561 -77.62682 9144 ft 293 kts 111°
2026-04-25 04:06 38.96825 -77.60225 8883 ft 295 kts 111°
2026-04-25 04:07 38.96091 -77.57770 8601 ft 293 kts 111°
2026-04-25 04:07 38.95364 -77.55326 8341 ft 291 kts 111°
2026-04-25 04:07 38.94711 -77.52912 8078 ft 289 kts 101°
2026-04-25 04:07 38.94764 -77.50363 7786 ft 286 kts 73°
2026-04-25 04:08 38.95467 -77.47984 7497 ft 284 kts 65°
2026-04-25 04:08 38.96258 -77.45675 7169 ft 281 kts 64°
2026-04-25 04:08 38.97049 -77.43385 6859 ft 277 kts 64°
2026-04-25 04:08 38.97814 -77.41147 6538 ft 270 kts 64°
2026-04-25 04:09 38.98542 -77.38984 6235 ft 262 kts 65°
2026-04-25 04:09 38.99254 -77.36857 5930 ft 256 kts 65°
2026-04-25 04:09 38.99947 -77.34781 5635 ft 249 kts 65°
2026-04-25 04:09 39.00623 -77.32754 5371 ft 242 kts 64°
2026-04-25 04:10 39.01285 -77.30783 5140 ft 239 kts 64°
2026-04-25 04:10 39.01946 -77.28820 4857 ft 239 kts 64°
2026-04-25 04:10 39.02607 -77.26854 4605 ft 239 kts 64°
2026-04-25 04:10 39.03009 -77.24813 4302 ft 239 kts 92°
2026-04-25 04:11 39.01535 -77.21424 3831 ft 208 kts 139°
2026-04-25 04:11 39.00497 -77.20179 3587 ft 198 kts 141°
2026-04-25 04:11 38.99506 -77.19002 3384 ft 190 kts 141°
2026-04-25 04:12 38.98550 -77.17870 3161 ft 188 kts 140°
2026-04-25 04:12 38.97605 -77.16703 2955 ft 188 kts 139°
2026-04-25 04:12 38.96681 -77.15541 2746 ft 184 kts 139°
2026-04-25 04:12 38.95761 -77.14470 2528 ft 172 kts 143°
2026-04-25 04:13 38.94862 -77.13476 2325 ft 169 kts 142°
2026-04-25 04:13 38.93966 -77.12486 2148 ft 169 kts 142°
2026-04-25 04:13 38.93049 -77.11599 1915 ft 163 kts 153°
2026-04-25 04:13 38.92074 -77.10950 1738 ft 151 kts 156°
2026-04-25 04:14 38.91204 -77.10341 1576 ft 137 kts 143°
2026-04-25 04:14 38.90677 -77.09424 1499 ft 128 kts 115°
2026-04-25 04:14 38.90386 -77.08275 1305 ft 143 kts 114°
2026-04-25 04:14 38.89918 -77.07181 1021 ft 137 kts 130°
2026-04-25 04:15 38.89295 -77.06302 842 ft 132 kts 136°
2026-04-25 04:15 38.88635 -77.05474 645 ft 132 kts 138°
2026-04-25 04:15 38.87940 -77.04673 457 ft 137 kts 142°
2026-04-25 04:15 38.87152 -77.04044 279 ft 128 kts 162°
2026-04-25 04:16 38.86293 -77.03885 83 ft 122 kts 175°
2026-04-25 04:16 38.85489 -77.03812 27 ft 93 kts 172°
2026-04-25 04:16 38.85057 -77.03765 24 ft 31 kts 176°
2026-04-25 04:16 38.84888 -77.03808 24 ft 23 kts 237°
2026-04-25 04:17 38.84875 -77.03879 23 ft 0 kts 240°
2026-04-25 04:17 38.84875 -77.03883 23 ft 2 kts 256°
2026-04-25 04:17 38.84869 -77.03932 23 ft 8 kts 242°
2026-04-25 04:17 38.84804 -77.03943 24 ft 16 kts 183°
2026-04-25 04:18 38.84677 -77.04010 23 ft 21 kts 205°
2026-04-25 04:18 38.84616 -77.04089 23 ft 9 kts 299°
2026-04-25 04:18 38.84667 -77.04129 25 ft 9 kts 337°
2026-04-25 04:18 38.84722 -77.04160 27 ft 5 kts 335°
2026-04-25 04:19 38.84752 -77.04184 23 ft 4 kts 298°
2026-04-25 04:19 38.84741 -77.04207 23 ft 3 kts 227°
2026-04-25 04:19 38.84729 -77.04223 23 ft 2 kts 225°
2026-04-25 04:19 38.84728 -77.04224 23 ft 0 kts 226°